Year,Month,Day,Hour,Minute,Value (Times are PST for temperature in C)
2021,07,06,00,00,14.70
2021,07,06,00,01,14.70
2021,07,06,00,02,14.70
2021,07,06,00,03,14.70
2021,07,06,00,04,14.60
2021,07,06,00,05,14.60
2021,07,06,00,06,14.60
2021,07,06,00,07,14.60
2021,07,06,00,08,14.60
2021,07,06,00,09,14.50
2021,07,06,00,10,14.50
2021,07,06,00,11,14.50
2021,07,06,00,12,14.50
2021,07,06,00,13,14.50
2021,07,06,00,14,14.50
2021,07,06,00,15,14.50
2021,07,06,00,16,14.50
2021,07,06,00,17,14.40
2021,07,06,00,18,14.40
2021,07,06,00,19,14.40
2021,07,06,00,20,14.40
2021,07,06,00,21,14.40
2021,07,06,00,22,14.40
2021,07,06,00,23,14.40
2021,07,06,00,24,14.40
2021,07,06,00,25,14.40
2021,07,06,00,26,14.40
2021,07,06,00,27,14.40
2021,07,06,00,28,14.40
2021,07,06,00,29,14.30
2021,07,06,00,30,14.30
2021,07,06,00,31,14.30
2021,07,06,00,32,14.30
2021,07,06,00,33,14.30
2021,07,06,00,34,14.30
2021,07,06,00,35,14.30
2021,07,06,00,36,14.30
2021,07,06,00,37,14.30
2021,07,06,00,38,14.30
2021,07,06,00,39,14.30
2021,07,06,00,40,14.30
2021,07,06,00,41,14.30
2021,07,06,00,42,14.30
2021,07,06,00,43,14.30
2021,07,06,00,44,14.30
2021,07,06,00,45,14.30
2021,07,06,00,46,14.30
2021,07,06,00,47,14.30
2021,07,06,00,48,14.30
2021,07,06,00,49,14.40
2021,07,06,00,50,14.40
2021,07,06,00,51,14.40
2021,07,06,00,52,14.40
2021,07,06,00,53,14.40
2021,07,06,00,54,14.40
2021,07,06,00,55,14.40
2021,07,06,00,56,14.40
2021,07,06,00,57,14.40
2021,07,06,00,58,14.40
2021,07,06,00,59,14.40
2021,07,06,01,00,14.40
2021,07,06,01,01,14.30
2021,07,06,01,02,14.30
2021,07,06,01,03,14.30
2021,07,06,01,04,14.30
2021,07,06,01,05,14.30
2021,07,06,01,06,14.30
2021,07,06,01,07,14.20
2021,07,06,01,08,14.20
2021,07,06,01,09,14.20
2021,07,06,01,10,14.20
2021,07,06,01,11,14.20
2021,07,06,01,12,14.10
2021,07,06,01,13,14.10
2021,07,06,01,14,14.10
2021,07,06,01,15,14.10
2021,07,06,01,16,14.10
2021,07,06,01,17,14.10
2021,07,06,01,18,14.10
2021,07,06,01,19,14.00
2021,07,06,01,20,14.00
2021,07,06,01,21,14.00
2021,07,06,01,22,14.00
2021,07,06,01,23,14.00
2021,07,06,01,24,14.00
2021,07,06,01,25,14.00
2021,07,06,01,26,14.00
2021,07,06,01,27,14.00
2021,07,06,01,28,14.00
2021,07,06,01,29,14.00
2021,07,06,01,30,14.00
2021,07,06,01,31,14.00
2021,07,06,01,32,14.00
2021,07,06,01,33,14.00
2021,07,06,01,34,14.00
2021,07,06,01,35,14.00
2021,07,06,01,36,13.90
2021,07,06,01,37,14.00
2021,07,06,01,38,13.90
2021,07,06,01,39,13.90
2021,07,06,01,40,13.90
2021,07,06,01,41,13.90
2021,07,06,01,42,13.90
2021,07,06,01,43,13.90
2021,07,06,01,44,13.90
2021,07,06,01,45,13.90
2021,07,06,01,46,13.90
2021,07,06,01,47,13.90
2021,07,06,01,48,13.90
2021,07,06,01,49,13.90
2021,07,06,01,50,13.90
2021,07,06,01,51,13.80
2021,07,06,01,52,13.80
2021,07,06,01,53,13.80
2021,07,06,01,54,13.80
2021,07,06,01,55,13.80
2021,07,06,01,56,13.80
2021,07,06,01,57,13.80
2021,07,06,01,58,13.80
2021,07,06,01,59,13.80
2021,07,06,02,00,13.80
2021,07,06,02,01,13.80
2021,07,06,02,02,13.80
2021,07,06,02,03,13.80
2021,07,06,02,04,13.80
2021,07,06,02,05,13.80
2021,07,06,02,06,13.80
2021,07,06,02,07,13.80
2021,07,06,02,08,13.80
2021,07,06,02,09,13.80
2021,07,06,02,10,13.80
2021,07,06,02,11,13.80
2021,07,06,02,12,13.80
2021,07,06,02,13,13.80
2021,07,06,02,14,13.80
2021,07,06,02,15,13.80
2021,07,06,02,16,13.80
2021,07,06,02,17,13.80
2021,07,06,02,18,13.80
2021,07,06,02,19,13.80
2021,07,06,02,20,13.80
2021,07,06,02,21,13.80
2021,07,06,02,22,13.80
2021,07,06,02,23,13.80
2021,07,06,02,24,13.80
2021,07,06,02,25,13.80
2021,07,06,02,26,13.70
2021,07,06,02,27,13.70
2021,07,06,02,28,13.70
2021,07,06,02,29,13.70
2021,07,06,02,30,13.70
2021,07,06,02,31,13.70
2021,07,06,02,32,13.70
2021,07,06,02,33,13.70
2021,07,06,02,34,13.70
2021,07,06,02,35,13.70
2021,07,06,02,36,13.70
2021,07,06,02,37,13.70
2021,07,06,02,38,13.70
2021,07,06,02,39,13.60
2021,07,06,02,40,13.60
2021,07,06,02,41,13.60
2021,07,06,02,42,13.60
2021,07,06,02,43,13.60
2021,07,06,02,44,13.60
2021,07,06,02,45,13.60
2021,07,06,02,46,13.60
2021,07,06,02,47,13.60
2021,07,06,02,48,13.60
2021,07,06,02,49,13.60
2021,07,06,02,50,13.60
2021,07,06,02,51,13.60
2021,07,06,02,52,13.60
2021,07,06,02,53,13.60
2021,07,06,02,54,13.60
2021,07,06,02,55,13.60
2021,07,06,02,56,13.60
2021,07,06,02,57,13.60
2021,07,06,02,58,13.60
2021,07,06,02,59,13.60
2021,07,06,03,00,13.60
2021,07,06,03,01,13.60
2021,07,06,03,02,13.60
2021,07,06,03,03,13.60
2021,07,06,03,04,13.50
2021,07,06,03,05,13.50
2021,07,06,03,06,13.60
2021,07,06,03,07,13.50
2021,07,06,03,08,13.50
2021,07,06,03,09,13.50
2021,07,06,03,10,13.50
2021,07,06,03,11,13.50
2021,07,06,03,12,13.50
2021,07,06,03,13,13.50
2021,07,06,03,14,13.50
2021,07,06,03,15,13.50
2021,07,06,03,16,13.50
2021,07,06,03,17,13.60
2021,07,06,03,18,13.60
2021,07,06,03,19,13.60
2021,07,06,03,20,13.60
2021,07,06,03,21,13.70
2021,07,06,03,22,13.70
2021,07,06,03,23,13.70
2021,07,06,03,24,13.80
2021,07,06,03,25,13.80
2021,07,06,03,26,13.80
2021,07,06,03,27,13.80
2021,07,06,03,28,13.80
2021,07,06,03,29,13.80
2021,07,06,03,30,13.80
2021,07,06,03,31,13.80
2021,07,06,03,32,13.80
2021,07,06,03,33,13.80
2021,07,06,03,34,13.80
2021,07,06,03,35,13.80
2021,07,06,03,36,13.80
2021,07,06,03,37,13.80
2021,07,06,03,38,13.80
2021,07,06,03,39,13.70
2021,07,06,03,40,13.70
2021,07,06,03,41,13.70
2021,07,06,03,42,13.60
2021,07,06,03,43,13.60
2021,07,06,03,44,13.60
2021,07,06,03,45,13.60
2021,07,06,03,46,13.60
2021,07,06,03,47,13.60
2021,07,06,03,48,13.60
2021,07,06,03,49,13.60
2021,07,06,03,50,13.50
2021,07,06,03,51,13.50
2021,07,06,03,52,13.50
2021,07,06,03,53,13.50
2021,07,06,03,54,13.40
2021,07,06,03,55,13.40
2021,07,06,03,56,13.40
2021,07,06,03,57,13.40
2021,07,06,03,58,13.40
2021,07,06,03,59,13.40
2021,07,06,04,00,13.40
2021,07,06,04,01,13.30
2021,07,06,04,02,13.30
2021,07,06,04,03,13.30
2021,07,06,04,04,13.30
2021,07,06,04,05,13.30
2021,07,06,04,06,13.30
2021,07,06,04,07,13.30
2021,07,06,04,08,13.30
2021,07,06,04,09,13.30
2021,07,06,04,10,13.30
2021,07,06,04,11,13.20
2021,07,06,04,12,13.20
2021,07,06,04,13,13.20
2021,07,06,04,14,13.10
2021,07,06,04,15,13.10
2021,07,06,04,16,13.10
2021,07,06,04,17,13.10
2021,07,06,04,18,13.10
2021,07,06,04,19,13.10
2021,07,06,04,20,13.10
2021,07,06,04,21,13.10
2021,07,06,04,22,13.10
2021,07,06,04,23,13.10
2021,07,06,04,24,13.10
2021,07,06,04,25,13.10
2021,07,06,04,26,13.10
2021,07,06,04,27,13.10
2021,07,06,04,28,13.10
2021,07,06,04,29,13.10
2021,07,06,04,30,13.10
2021,07,06,04,31,13.10
2021,07,06,04,32,13.00
2021,07,06,04,33,13.00
2021,07,06,04,34,13.00
2021,07,06,04,35,13.00
2021,07,06,04,36,13.00
2021,07,06,04,37,12.90
2021,07,06,04,38,12.90
2021,07,06,04,39,12.90
2021,07,06,04,40,13.00
2021,07,06,04,41,12.90
2021,07,06,04,42,12.90
2021,07,06,04,43,12.90
2021,07,06,04,44,12.90
2021,07,06,04,45,12.90
2021,07,06,04,46,12.90
2021,07,06,04,47,12.90
2021,07,06,04,48,12.90
2021,07,06,04,49,12.90
2021,07,06,04,50,12.90
2021,07,06,04,51,12.90
2021,07,06,04,52,12.90
2021,07,06,04,53,12.90
2021,07,06,04,54,12.90
2021,07,06,04,55,12.90
2021,07,06,04,56,12.90
2021,07,06,04,57,12.90
2021,07,06,04,58,12.90
2021,07,06,04,59,12.90
2021,07,06,05,00,12.90
2021,07,06,05,01,12.90
2021,07,06,05,02,12.90
2021,07,06,05,03,12.90
2021,07,06,05,04,12.90
2021,07,06,05,05,12.90
2021,07,06,05,06,12.90
2021,07,06,05,07,12.90
2021,07,06,05,08,12.90
2021,07,06,05,09,12.90
2021,07,06,05,10,12.90
2021,07,06,05,11,12.90
2021,07,06,05,12,12.90
2021,07,06,05,13,12.90
2021,07,06,05,14,12.90
2021,07,06,05,15,12.90
2021,07,06,05,16,12.90
2021,07,06,05,17,13.00
2021,07,06,05,18,13.00
2021,07,06,05,19,13.00
2021,07,06,05,20,13.00
2021,07,06,05,21,13.00
2021,07,06,05,22,13.00
2021,07,06,05,23,13.00
2021,07,06,05,24,13.00
2021,07,06,05,25,13.00
2021,07,06,05,26,13.00
2021,07,06,05,27,13.00
2021,07,06,05,28,13.00
2021,07,06,05,29,13.00
2021,07,06,05,30,13.00
2021,07,06,05,31,13.00
2021,07,06,05,32,13.00
2021,07,06,05,33,13.00
2021,07,06,05,34,13.10
2021,07,06,05,35,13.10
2021,07,06,05,36,13.10
2021,07,06,05,37,13.10
2021,07,06,05,38,13.10
2021,07,06,05,39,13.10
2021,07,06,05,40,13.10
2021,07,06,05,41,13.20
2021,07,06,05,42,13.20
2021,07,06,05,43,13.20
2021,07,06,05,44,13.20
2021,07,06,05,45,13.20
2021,07,06,05,46,13.30
2021,07,06,05,47,13.30
2021,07,06,05,48,13.40
2021,07,06,05,49,13.40
2021,07,06,05,50,13.50
2021,07,06,05,51,13.60
2021,07,06,05,52,13.60
2021,07,06,05,53,13.70
2021,07,06,05,54,13.70
2021,07,06,05,55,13.80
2021,07,06,05,56,13.80
2021,07,06,05,57,13.90
2021,07,06,05,58,13.90
2021,07,06,05,59,13.90
2021,07,06,06,00,14.00
2021,07,06,06,01,14.00
2021,07,06,06,02,14.10
2021,07,06,06,03,14.10
2021,07,06,06,04,14.20
2021,07,06,06,05,14.20
2021,07,06,06,06,14.20
2021,07,06,06,07,14.30
2021,07,06,06,08,14.30
2021,07,06,06,09,14.40
2021,07,06,06,10,14.40
2021,07,06,06,11,14.40
2021,07,06,06,12,14.50
2021,07,06,06,13,14.50
2021,07,06,06,14,14.50
2021,07,06,06,15,14.60
2021,07,06,06,16,14.60
2021,07,06,06,17,14.60
2021,07,06,06,18,14.60
2021,07,06,06,19,14.60
2021,07,06,06,20,14.70
2021,07,06,06,21,14.70
2021,07,06,06,22,14.70
2021,07,06,06,23,14.70
2021,07,06,06,24,14.70
2021,07,06,06,25,14.70
2021,07,06,06,26,14.60
2021,07,06,06,27,14.60
2021,07,06,06,28,14.60
2021,07,06,06,29,14.60
2021,07,06,06,30,14.60
2021,07,06,06,31,14.60
2021,07,06,06,32,14.60
2021,07,06,06,33,14.60
2021,07,06,06,34,14.60
2021,07,06,06,35,14.60
2021,07,06,06,36,14.50
2021,07,06,06,37,14.50
2021,07,06,06,38,14.50
2021,07,06,06,39,14.40
2021,07,06,06,40,14.40
2021,07,06,06,41,14.30
2021,07,06,06,42,14.30
2021,07,06,06,43,14.30
2021,07,06,06,44,14.30
2021,07,06,06,45,14.30
2021,07,06,06,46,14.30
2021,07,06,06,47,14.30
2021,07,06,06,48,14.30
2021,07,06,06,49,14.30
2021,07,06,06,50,14.30
2021,07,06,06,51,14.30
2021,07,06,06,52,14.40
2021,07,06,06,53,14.40
2021,07,06,06,54,14.30
2021,07,06,06,55,14.30
2021,07,06,06,56,14.30
2021,07,06,06,57,14.30
2021,07,06,06,58,14.30
2021,07,06,06,59,14.30
2021,07,06,07,00,14.30
2021,07,06,07,01,14.30
2021,07,06,07,02,14.30
2021,07,06,07,03,14.30
2021,07,06,07,04,14.30
2021,07,06,07,05,14.40
2021,07,06,07,06,14.40
2021,07,06,07,07,14.40
2021,07,06,07,08,14.40
2021,07,06,07,09,14.40
2021,07,06,07,10,14.40
2021,07,06,07,11,14.40
2021,07,06,07,12,14.50
2021,07,06,07,13,14.50
2021,07,06,07,14,14.50
2021,07,06,07,15,14.60
2021,07,06,07,16,14.60
2021,07,06,07,17,14.60
2021,07,06,07,18,14.60
2021,07,06,07,19,14.60
2021,07,06,07,20,14.60
2021,07,06,07,21,14.60
2021,07,06,07,22,14.60
2021,07,06,07,23,14.60
2021,07,06,07,24,14.60
2021,07,06,07,25,14.60
2021,07,06,07,26,14.60
2021,07,06,07,27,14.70
2021,07,06,07,28,14.70
2021,07,06,07,29,14.70
2021,07,06,07,30,14.70
2021,07,06,07,31,14.60
2021,07,06,07,32,14.70
2021,07,06,07,33,14.70
2021,07,06,07,34,14.70
2021,07,06,07,35,14.70
2021,07,06,07,36,14.70
2021,07,06,07,37,14.70
2021,07,06,07,38,14.70
2021,07,06,07,39,14.60
2021,07,06,07,40,14.60
2021,07,06,07,41,14.60
2021,07,06,07,42,14.60
2021,07,06,07,43,14.60
2021,07,06,07,44,14.60
2021,07,06,07,45,14.60
2021,07,06,07,46,14.60
2021,07,06,07,47,14.60
2021,07,06,07,48,14.60
2021,07,06,07,49,14.60
2021,07,06,07,50,14.50
2021,07,06,07,51,14.50
2021,07,06,07,52,14.50
2021,07,06,07,53,14.50
2021,07,06,07,54,14.50
2021,07,06,07,55,14.50
2021,07,06,07,56,14.40
2021,07,06,07,57,14.40
2021,07,06,07,58,14.40
2021,07,06,07,59,14.40
2021,07,06,08,00,14.40
2021,07,06,08,01,14.40
2021,07,06,08,02,14.40
2021,07,06,08,03,14.40
2021,07,06,08,04,14.40
2021,07,06,08,05,14.40
2021,07,06,08,06,14.40
2021,07,06,08,07,14.40
2021,07,06,08,08,14.40
2021,07,06,08,09,14.40
2021,07,06,08,10,14.40
2021,07,06,08,11,14.40
2021,07,06,08,12,14.40
2021,07,06,08,13,14.40
2021,07,06,08,14,14.40
2021,07,06,08,15,14.40
2021,07,06,08,16,14.40
2021,07,06,08,17,14.30
2021,07,06,08,18,14.30
2021,07,06,08,19,14.30
2021,07,06,08,20,14.30
2021,07,06,08,21,14.30
2021,07,06,08,22,14.30
2021,07,06,08,23,14.30
2021,07,06,08,24,14.30
2021,07,06,08,25,14.30
2021,07,06,08,26,14.30
2021,07,06,08,27,14.30
2021,07,06,08,28,14.30
2021,07,06,08,29,14.30
2021,07,06,08,30,14.30
2021,07,06,08,31,14.30
2021,07,06,08,32,14.30
2021,07,06,08,33,14.40
2021,07,06,08,34,14.40
2021,07,06,08,35,14.40
2021,07,06,08,36,14.40
2021,07,06,08,37,14.50
2021,07,06,08,38,14.50
2021,07,06,08,39,14.50
2021,07,06,08,40,14.50
2021,07,06,08,41,14.50
2021,07,06,08,42,14.40
2021,07,06,08,43,14.40
2021,07,06,08,44,14.40
2021,07,06,08,45,14.40
2021,07,06,08,46,14.40
2021,07,06,08,47,14.40
2021,07,06,08,48,14.40
2021,07,06,08,49,14.40
2021,07,06,08,50,14.40
2021,07,06,08,51,14.40
2021,07,06,08,52,14.40
2021,07,06,08,53,14.40
2021,07,06,08,54,14.40
2021,07,06,08,55,14.40
2021,07,06,08,56,14.40
2021,07,06,08,57,14.40
2021,07,06,08,58,14.40
2021,07,06,08,59,14.40
2021,07,06,09,00,14.40
2021,07,06,09,01,14.40
2021,07,06,09,02,14.40
2021,07,06,09,03,14.40
2021,07,06,09,04,14.40
2021,07,06,09,05,14.40
2021,07,06,09,06,14.40
2021,07,06,09,07,14.40
2021,07,06,09,08,14.40
2021,07,06,09,09,14.40
2021,07,06,09,10,14.40
2021,07,06,09,11,14.40
2021,07,06,09,12,14.40
2021,07,06,09,13,14.40
2021,07,06,09,14,14.40
2021,07,06,09,15,14.40
2021,07,06,09,16,14.40
2021,07,06,09,17,14.50
2021,07,06,09,18,14.50
2021,07,06,09,19,14.50
2021,07,06,09,20,14.60
2021,07,06,09,21,14.60
2021,07,06,09,22,14.60
2021,07,06,09,23,14.70
2021,07,06,09,24,14.70
2021,07,06,09,25,14.80
2021,07,06,09,26,14.80
2021,07,06,09,27,14.90
2021,07,06,09,28,15.00
2021,07,06,09,29,15.00
2021,07,06,09,30,15.10
2021,07,06,09,31,15.10
2021,07,06,09,32,15.10
2021,07,06,09,33,15.20
2021,07,06,09,34,15.20
2021,07,06,09,35,15.30
2021,07,06,09,36,15.30
2021,07,06,09,37,15.30
2021,07,06,09,38,15.40
2021,07,06,09,39,15.40
2021,07,06,09,40,15.40
2021,07,06,09,41,15.40
2021,07,06,09,42,15.50
2021,07,06,09,43,15.50
2021,07,06,09,44,15.50
2021,07,06,09,45,15.50
2021,07,06,09,46,15.60
2021,07,06,09,47,15.60
2021,07,06,09,48,15.60
2021,07,06,09,49,15.60
2021,07,06,09,50,15.60
2021,07,06,09,51,15.60
2021,07,06,09,52,15.60
2021,07,06,09,53,15.60
2021,07,06,09,54,15.60
2021,07,06,09,55,15.60
2021,07,06,09,56,15.60
2021,07,06,09,57,15.60
2021,07,06,09,58,15.60
2021,07,06,09,59,15.60
2021,07,06,10,00,15.60
2021,07,06,10,01,15.50
2021,07,06,10,02,15.50
2021,07,06,10,03,15.50
2021,07,06,10,04,15.50
2021,07,06,10,05,15.50
2021,07,06,10,06,15.50
2021,07,06,10,07,15.60
2021,07,06,10,08,15.60
2021,07,06,10,09,15.60
2021,07,06,10,10,15.60
2021,07,06,10,11,15.70
2021,07,06,10,12,15.70
2021,07,06,10,13,15.80
2021,07,06,10,14,15.80
2021,07,06,10,15,15.90
2021,07,06,10,16,15.90
2021,07,06,10,17,16.00
2021,07,06,10,18,16.10
2021,07,06,10,19,16.10
2021,07,06,10,20,16.20
2021,07,06,10,21,16.20
2021,07,06,10,22,16.30
2021,07,06,10,23,16.30
2021,07,06,10,24,16.30
2021,07,06,10,25,16.30
2021,07,06,10,26,16.30
2021,07,06,10,27,16.20
2021,07,06,10,28,16.20
2021,07,06,10,29,16.20
2021,07,06,10,30,16.20
2021,07,06,10,31,16.10
2021,07,06,10,32,16.00
2021,07,06,10,33,15.90
2021,07,06,10,34,15.90
2021,07,06,10,35,15.80
2021,07,06,10,36,15.80
2021,07,06,10,37,15.80
2021,07,06,10,38,15.80
2021,07,06,10,39,15.80
2021,07,06,10,40,15.90
2021,07,06,10,41,15.90
2021,07,06,10,42,16.00
2021,07,06,10,43,16.00
2021,07,06,10,44,16.10
2021,07,06,10,45,16.20
2021,07,06,10,46,16.20
2021,07,06,10,47,16.30
2021,07,06,10,48,16.30
2021,07,06,10,49,16.30
2021,07,06,10,50,16.30
2021,07,06,10,51,16.30
2021,07,06,10,52,16.30
2021,07,06,10,53,16.40
2021,07,06,10,54,16.40
2021,07,06,10,55,16.50
2021,07,06,10,56,16.40
2021,07,06,10,57,16.50
2021,07,06,10,58,16.50
2021,07,06,10,59,16.50
2021,07,06,11,00,16.50
2021,07,06,11,01,16.60
2021,07,06,11,02,16.60
2021,07,06,11,03,16.60
2021,07,06,11,04,16.70
2021,07,06,11,05,16.70
2021,07,06,11,06,16.70
2021,07,06,11,07,16.70
2021,07,06,11,08,16.70
2021,07,06,11,09,16.70
2021,07,06,11,10,16.80
2021,07,06,11,11,16.80
2021,07,06,11,12,16.80
2021,07,06,11,13,16.90
2021,07,06,11,14,16.90
2021,07,06,11,15,17.00
2021,07,06,11,16,17.00
2021,07,06,11,17,17.10
2021,07,06,11,18,17.10
2021,07,06,11,19,17.10
2021,07,06,11,20,17.20
2021,07,06,11,21,17.20
2021,07,06,11,22,17.20
2021,07,06,11,23,17.20
2021,07,06,11,24,17.20
2021,07,06,11,25,17.20
2021,07,06,11,26,17.20
2021,07,06,11,27,17.10
2021,07,06,11,28,17.00
2021,07,06,11,29,16.90
2021,07,06,11,30,16.80
2021,07,06,11,31,16.60
2021,07,06,11,32,16.60
2021,07,06,11,33,16.50
2021,07,06,11,34,16.40
2021,07,06,11,35,16.40
2021,07,06,11,36,16.40
2021,07,06,11,37,16.50
2021,07,06,11,38,16.50
2021,07,06,11,39,16.60
2021,07,06,11,40,16.70
2021,07,06,11,41,16.70
2021,07,06,11,42,16.80
2021,07,06,11,43,16.90
2021,07,06,11,44,16.90
2021,07,06,11,45,16.90
2021,07,06,11,46,16.90
2021,07,06,11,47,16.90
2021,07,06,11,48,16.90
2021,07,06,11,49,16.90
2021,07,06,11,50,17.00
2021,07,06,11,51,17.00
2021,07,06,11,52,17.10
2021,07,06,11,53,17.10
2021,07,06,11,54,17.10
2021,07,06,11,55,17.10
2021,07,06,11,56,17.10
2021,07,06,11,57,17.20
2021,07,06,11,58,17.20
2021,07,06,11,59,17.20
2021,07,06,12,00,17.30
2021,07,06,12,01,17.40
2021,07,06,12,02,17.40
2021,07,06,12,03,17.50
2021,07,06,12,04,17.60
2021,07,06,12,05,17.60
2021,07,06,12,06,17.70
2021,07,06,12,07,17.70
2021,07,06,12,08,17.70
2021,07,06,12,09,17.70
2021,07,06,12,10,17.70
2021,07,06,12,11,17.70
2021,07,06,12,12,17.70
2021,07,06,12,13,17.70
2021,07,06,12,14,17.70
2021,07,06,12,15,17.80
2021,07,06,12,16,17.80
2021,07,06,12,17,17.80
2021,07,06,12,18,17.80
2021,07,06,12,19,17.80
2021,07,06,12,20,17.80
2021,07,06,12,21,17.80
2021,07,06,12,22,17.80
2021,07,06,12,23,17.70
2021,07,06,12,24,17.70
2021,07,06,12,25,17.60
2021,07,06,12,26,17.60
2021,07,06,12,27,17.50
2021,07,06,12,28,17.50
2021,07,06,12,29,17.40
2021,07,06,12,30,17.40
2021,07,06,12,31,17.40
2021,07,06,12,32,17.40
2021,07,06,12,33,17.50
2021,07,06,12,34,17.50
2021,07,06,12,35,17.50
2021,07,06,12,36,17.60
2021,07,06,12,37,17.60
2021,07,06,12,38,17.60
2021,07,06,12,39,17.70
2021,07,06,12,40,17.70
2021,07,06,12,41,17.70
2021,07,06,12,42,17.80
2021,07,06,12,43,17.80
2021,07,06,12,44,17.90
2021,07,06,12,45,18.00
2021,07,06,12,46,18.10
2021,07,06,12,47,18.10
2021,07,06,12,48,18.10
2021,07,06,12,49,18.10
2021,07,06,12,50,18.10
2021,07,06,12,51,18.10
2021,07,06,12,52,18.00
2021,07,06,12,53,18.00
2021,07,06,12,54,18.00
2021,07,06,12,55,18.00
2021,07,06,12,56,17.90
2021,07,06,12,57,18.00
2021,07,06,12,58,18.00
2021,07,06,12,59,18.00
2021,07,06,13,00,18.00
2021,07,06,13,01,18.00
2021,07,06,13,02,17.90
2021,07,06,13,03,17.90
2021,07,06,13,04,17.90
2021,07,06,13,05,18.00
2021,07,06,13,06,18.00
2021,07,06,13,07,18.00
2021,07,06,13,08,18.00
2021,07,06,13,09,18.00
2021,07,06,13,10,18.00
2021,07,06,13,11,18.00
2021,07,06,13,12,18.10
2021,07,06,13,13,18.10
2021,07,06,13,14,18.10
2021,07,06,13,15,18.10
2021,07,06,13,16,18.20
2021,07,06,13,17,18.20
2021,07,06,13,18,18.30
2021,07,06,13,19,18.30
2021,07,06,13,20,18.40
2021,07,06,13,21,18.40
2021,07,06,13,22,18.40
2021,07,06,13,23,18.50
2021,07,06,13,24,18.40
2021,07,06,13,25,18.40
2021,07,06,13,26,18.40
2021,07,06,13,27,18.40
2021,07,06,13,28,18.40
2021,07,06,13,29,18.30
2021,07,06,13,30,18.30
2021,07,06,13,31,18.30
2021,07,06,13,32,18.30
2021,07,06,13,33,18.30
2021,07,06,13,34,18.20
2021,07,06,13,35,18.20
2021,07,06,13,36,18.10
2021,07,06,13,37,18.10
2021,07,06,13,38,18.10
2021,07,06,13,39,18.10
2021,07,06,13,40,18.10
2021,07,06,13,41,18.10
2021,07,06,13,42,18.10
2021,07,06,13,43,18.10
2021,07,06,13,44,18.10
2021,07,06,13,45,18.10
2021,07,06,13,46,18.20
2021,07,06,13,47,18.20
2021,07,06,13,48,18.20
2021,07,06,13,49,18.30
2021,07,06,13,50,18.30
2021,07,06,13,51,18.30
2021,07,06,13,52,18.30
2021,07,06,13,53,18.40
2021,07,06,13,54,18.40
2021,07,06,13,55,18.40
2021,07,06,13,56,18.40
2021,07,06,13,57,18.40
2021,07,06,13,58,18.40
2021,07,06,13,59,18.40
2021,07,06,14,00,18.40
2021,07,06,14,01,18.30
2021,07,06,14,02,18.30
2021,07,06,14,03,18.30
2021,07,06,14,04,18.40
2021,07,06,14,05,18.40
2021,07,06,14,06,18.40
2021,07,06,14,07,18.40
2021,07,06,14,08,18.40
2021,07,06,14,09,18.40
2021,07,06,14,10,18.40
2021,07,06,14,11,18.40
2021,07,06,14,12,18.40
2021,07,06,14,13,18.40
2021,07,06,14,14,18.30
2021,07,06,14,15,18.30
2021,07,06,14,16,18.30
2021,07,06,14,17,18.30
2021,07,06,14,18,18.40
2021,07,06,14,19,18.40
2021,07,06,14,20,18.40
2021,07,06,14,21,18.40
2021,07,06,14,22,18.40
2021,07,06,14,23,18.50
2021,07,06,14,24,18.40
2021,07,06,14,25,18.40
2021,07,06,14,26,18.40
2021,07,06,14,27,18.40
2021,07,06,14,28,18.50
2021,07,06,14,29,18.50
2021,07,06,14,30,18.50
2021,07,06,14,31,18.50
2021,07,06,14,32,18.60
2021,07,06,14,33,18.60
2021,07,06,14,34,18.60
2021,07,06,14,35,18.60
2021,07,06,14,36,18.60
2021,07,06,14,37,18.60
2021,07,06,14,38,18.60
2021,07,06,14,39,18.60
2021,07,06,14,40,18.60
2021,07,06,14,41,18.60
2021,07,06,14,42,18.60
2021,07,06,14,43,18.60
2021,07,06,14,44,18.60
2021,07,06,14,45,18.60
2021,07,06,14,46,18.70
2021,07,06,14,47,18.60
2021,07,06,14,48,18.60
2021,07,06,14,49,18.60
2021,07,06,14,50,18.70
2021,07,06,14,51,18.70
2021,07,06,14,52,18.70
2021,07,06,14,53,18.70
2021,07,06,14,54,18.80
2021,07,06,14,55,18.80
2021,07,06,14,56,18.80
2021,07,06,14,57,18.80
2021,07,06,14,58,18.80
2021,07,06,14,59,18.80
2021,07,06,15,00,18.90
2021,07,06,15,01,18.90
2021,07,06,15,02,18.90
2021,07,06,15,03,19.00
2021,07,06,15,04,19.00
2021,07,06,15,05,19.10
2021,07,06,15,06,19.10
2021,07,06,15,07,19.10
2021,07,06,15,08,19.10
2021,07,06,15,09,19.20
2021,07,06,15,10,19.20
2021,07,06,15,11,19.20
2021,07,06,15,12,19.20
2021,07,06,15,13,19.20
2021,07,06,15,14,19.30
2021,07,06,15,15,19.30
2021,07,06,15,16,19.30
2021,07,06,15,17,19.20
2021,07,06,15,18,19.20
2021,07,06,15,19,19.30
2021,07,06,15,20,19.30
2021,07,06,15,21,19.30
2021,07,06,15,22,19.30
2021,07,06,15,23,19.30
2021,07,06,15,24,19.30
2021,07,06,15,25,19.30
2021,07,06,15,26,19.30
2021,07,06,15,27,19.30
2021,07,06,15,28,19.30
2021,07,06,15,29,19.20
2021,07,06,15,30,19.30
2021,07,06,15,31,19.20
2021,07,06,15,32,19.20
2021,07,06,15,33,19.20
2021,07,06,15,34,19.20
2021,07,06,15,35,19.30
2021,07,06,15,36,19.30
2021,07,06,15,37,19.30
2021,07,06,15,38,19.40
2021,07,06,15,39,19.40
2021,07,06,15,40,19.40
2021,07,06,15,41,19.40
2021,07,06,15,42,19.50
2021,07,06,15,43,19.50
2021,07,06,15,44,19.50
2021,07,06,15,45,19.60
2021,07,06,15,46,19.60
2021,07,06,15,47,19.70
2021,07,06,15,48,19.70
2021,07,06,15,49,19.70
2021,07,06,15,50,19.60
2021,07,06,15,51,19.60
2021,07,06,15,52,19.70
2021,07,06,15,53,19.60
2021,07,06,15,54,19.70
2021,07,06,15,55,19.70
2021,07,06,15,56,19.70
2021,07,06,15,57,19.70
2021,07,06,15,58,19.70
2021,07,06,15,59,19.70
2021,07,06,16,00,19.70
2021,07,06,16,01,19.60
2021,07,06,16,02,19.50
2021,07,06,16,03,19.40
2021,07,06,16,04,19.40
2021,07,06,16,05,19.30
2021,07,06,16,06,19.30
2021,07,06,16,07,19.30
2021,07,06,16,08,19.20
2021,07,06,16,09,19.20
2021,07,06,16,10,19.30
2021,07,06,16,11,19.30
2021,07,06,16,12,19.30
2021,07,06,16,13,19.30
2021,07,06,16,14,19.40
2021,07,06,16,15,19.40
2021,07,06,16,16,19.50
2021,07,06,16,17,19.50
2021,07,06,16,18,19.30
2021,07,06,16,19,19.00
2021,07,06,16,20,18.60
2021,07,06,16,21,18.30
2021,07,06,16,22,18.10
2021,07,06,16,23,17.90
2021,07,06,16,24,17.90
2021,07,06,16,25,17.80
2021,07,06,16,26,17.70
2021,07,06,16,27,17.60
2021,07,06,16,28,17.40
2021,07,06,16,29,17.40
2021,07,06,16,30,17.40
2021,07,06,16,31,17.30
2021,07,06,16,32,17.30
2021,07,06,16,33,17.30
2021,07,06,16,34,17.30
2021,07,06,16,35,17.30
2021,07,06,16,36,17.30
2021,07,06,16,37,17.40
2021,07,06,16,38,17.50
2021,07,06,16,39,17.80
2021,07,06,16,40,18.20
2021,07,06,16,41,18.60
2021,07,06,16,42,18.90
2021,07,06,16,43,19.20
2021,07,06,16,44,19.50
2021,07,06,16,45,19.70
2021,07,06,16,46,19.80
2021,07,06,16,47,19.90
2021,07,06,16,48,19.90
2021,07,06,16,49,19.80
2021,07,06,16,50,19.50
2021,07,06,16,51,19.30
2021,07,06,16,52,19.10
2021,07,06,16,53,18.80
2021,07,06,16,54,18.60
2021,07,06,16,55,18.40
2021,07,06,16,56,18.20
2021,07,06,16,57,18.00
2021,07,06,16,58,17.90
2021,07,06,16,59,17.70
2021,07,06,17,00,17.60
2021,07,06,17,01,17.50
2021,07,06,17,02,17.40
2021,07,06,17,03,17.30
2021,07,06,17,04,17.30
2021,07,06,17,05,17.30
2021,07,06,17,06,17.20
2021,07,06,17,07,17.20
2021,07,06,17,08,17.20
2021,07,06,17,09,17.20
2021,07,06,17,10,17.20
2021,07,06,17,11,17.30
2021,07,06,17,12,17.30
2021,07,06,17,13,17.40
2021,07,06,17,14,17.40
2021,07,06,17,15,17.40
2021,07,06,17,16,17.40
2021,07,06,17,17,17.40
2021,07,06,17,18,17.40
2021,07,06,17,19,17.40